Location: Arbon
(43.0005°N, 0.7472°E)
Time: 23:25:32
(UTC+00:00)

Courier 1B Rocket - Pass Details

Date: 27 November 2020
Orbit: 920 x 1202 km, 28.2° (Epoch: 22 January)

Event Time Altitude Azimuth Distance (km) Brightness Sun altitude
Rises 07:43:45 0° 242° (WSW) 4,074 8.0 5.2°
Reaches altitude 10° 07:47:11 10° 230° (SW) 3,087 7.5 5.8°
Maximum altitude 07:53:09 25° 178° (S) 2,109 7.4 6.6°
Drops below altitude 10° 07:58:53 10° 126° (SE) 2,951 11.1 7.5°
Sets 08:02:05 0° 114° (ESE) 3,860 9.9 7.9°
